Location: Downe
(51.3167°N, 0.0500°E)
Time: 02:44:12
(UTC+00:00)

Daily predictions for brighter satellites

Satellite Brightness Start Highest point End
(mag) Time Altitude Azimuth Time Altitude Azimuth Time Altitude Azimuth
Lacrosse 5 4.4 03:03:27 17° E 03:03:27 17° E 03:04:52 10° ENE
SL-16 R/B 4.1 03:10:33 25° NE 03:10:33 25° NE 03:15:05 10° E
Cosmos 1980 Rocket 4.3 03:19:58 19° SE 03:19:58 19° SE 03:21:33 10° SE
Cosmos 2322 Rocket 4.0 03:19:07 25° NNE 03:19:35 25° NE 03:24:14 10° E
CZ-4C R/B 3.7 03:32:39 33° NNE 03:32:39 33° NNE 03:36:39 10° NE
ATLAS 2AS CENTAUR R/B 3.5 03:31:58 46° N 03:33:21 51° NNE 03:40:29 10° ESE
SJ 16-02 3.9 03:37:49 16° ESE 03:38:58 17° E 03:41:52 10° NE
SL-4 R/B 3.6 03:59:44 40° E 03:59:44 40° E 04:02:51 10° E
USA 234 3.4 03:59:00 10° ENE 04:05:21 56° N 04:05:49 55° NNW
Cosmos 2058 4.5 04:05:31 34° E 04:05:31 34° E 04:09:18 10° NNE
IDEFIX/ARIANE 42P 3.7 04:05:23 10° NNE 04:08:18 34° N 04:08:18 34° N
PAYLOAD A 4.4 04:12:02 10° NNE 04:17:21 67° ESE 04:20:32 25° S
COSMOS 2406 4.2 04:22:23 33° N 04:22:23 33° N 04:26:11 10° NNE
Cosmos 2082 Rocket 2.0 04:25:34 80° WSW 04:25:51 84° WNW 04:31:37 10° NNE
NOSS 2-2 (D) 4.4 04:28:48 65° W 04:29:30 71° SW 04:37:16 10° SSE
Cosmos 1076 Rocket 4.4 04:31:43 41° NNE 04:31:43 41° NNE 04:34:36 10° NNE
Cosmos 158 Rocket 4.0 04:34:13 60° S 04:34:13 60° S 04:38:14 10° SSE
Cosmos 1934 Rocket 4.2 04:36:30 51° NW 04:36:30 51° NW 04:42:13 10° N
Cosmos 1833 Rocket 2.9 04:41:03 50° NW 04:41:03 50° NW 04:46:08 10° NNE
COSMOS 2455 2.7 04:40:31 45° NW 04:42:33 87° SW 04:48:34 10° SSE
Lacrosse 5 1.7 04:42:40 74° WSW 04:43:09 86° NNW 04:48:16 10° ENE
NOSS 3-4 (A) 3.9 04:41:05 32° NW 04:44:37 74° NE 04:52:10 10° SE
NOSS 3-4 (C) 3.9 04:41:11 32° NW 04:44:43 74° NE 04:52:15 10° SE
SL-27 R/B 4.2 04:46:35 25° NNE 04:46:35 25° NNE 04:48:07 10° NNE
MSX 3.7 04:39:30 10° N 04:45:13 66° WNW 04:47:19 39° SW
Meteor 2-20 Rocket 4.4 04:39:20 10° N 04:45:34 88° E 04:51:45 10° S
Cosmos 1447 Rocket 4.4 04:42:15 10° NNW 04:48:32 63° W 04:54:46 10° S
Cosmos 2100 Rocket 4.4 04:43:14 10° S 04:49:20 64° E 04:55:25 10° NNE
CZ-2C R/B 2.2 04:45:08 10° NNE 04:50:05 82° WNW 04:53:05 23° SSW
Cosmos 990 Rocket 4.0 04:46:45 18° SSW 04:50:36 79° ESE 04:55:51 10° NNE
Cosmos 967 Rocket 4.4 04:48:56 38° SW 04:51:37 80° NW 04:58:06 10° NE
Cosmos 2360 Rocket 3.0 04:49:37 16° NNW 04:53:59 49° NE 04:59:30 10° SE
ATLAS CENTAUR R/B 4.0 04:51:06 10° SSE 04:55:00 24° ESE 04:58:50 10° ENE
Cosmos 2237 Rocket 4.5 04:51:34 10° N 04:55:01 16° NNE 04:58:27 10° ENE
SL-16 R/B 2.1 04:52:28 32° NNW 04:55:17 86° WSW 05:00:58 10° SSE
NOSS 3-3 (A) 4.1 04:51:48 21° SSW 04:56:01 74° SE 05:02:48 10° NE
NOSS 3-3 (C) 4.1 04:51:53 20° SSW 04:56:08 74° SE 05:02:54 10° NE
Meteor 2-20 4.4 04:50:11 10° NNW 04:56:16 62° W 05:02:19 10° S
ADEOS 4.1 04:53:40 10° N 04:57:51 39° NW 04:57:51 39° NW
ASTEX 1 3.4 04:54:38 10° S 04:59:30 57° W 05:04:27 10° NNW
Cosmos 1980 Rocket 3.5 05:01:49 23° SW 05:01:49 23° SW 05:04:31 10° SSW
STARLINK-67 4.4 05:01:47 30° ESE 05:01:47 30° ESE 05:03:18 10° ESE
Meteor PRIRODA 3.8 04:58:25 10° NNE 05:02:06 71° ESE 05:05:45 10° S
ALOS 3.7 04:59:45 10° NNE 05:04:10 39° E 05:08:32 10° SSE
Cosmos 2322 Rocket 2.1 05:00:58 26° NNW 05:04:21 85° WSW 05:10:01 10° SSE
BREEZE-M DEB (TANK) 4.5 05:05:32 17° S 05:05:32 17° S 05:07:39 10° SSE
Cosmos 1802 Rocket 4.5 04:59:05 10° S 05:05:25 66° E 05:11:47 10° NNE
STARLINK-46 3.4 05:07:08 53° ENE 05:07:08 53° ENE 05:09:38 10° E
Cosmos 2151 3.1 05:04:36 10° S 05:08:54 75° E 05:13:14 10° NNE
Cosmos 1766 Rocket 3.7 05:05:36 10° S 05:09:53 71° E 05:14:15 10° NNE
Lacrosse 5 rocket 1.8 05:10:59 37° N 05:11:31 39° NNE 05:14:55 10° E
Okean 3 Rocket 3.5 05:07:08 10° S 05:11:39 87° W 05:16:10 10° N
H-2A R/B 3.0 05:08:21 10° N 05:12:35 43° WNW 05:12:35 43° WNW
Cosmos 1408 3.5 05:10:07 10° S 05:13:41 49° E 05:17:16 10° NNE
CZ-4B R/B 4.1 05:11:20 10° N 05:15:46 60° WNW 05:20:11 10° SSW
Cosmos 1153 Rocket 4.4 05:10:13 10° SSW 05:16:14 58° WNW 05:22:19 10° N
SJ 16-02 1.2 05:14:55 28° SW 05:17:05 63° WNW 05:21:27 10° NNE
Cosmos 839 Rocket 4.1 05:14:10 25° WSW 05:18:11 61° NW 05:24:19 10° NE
COSMO-SKYMED 1 2.5 05:14:57 10° S 05:19:16 68° WSW 05:23:14 12° NNW
Cosmos 2061 Rocket 4.2 05:13:09 10° S 05:19:22 72° E 05:25:33 10° NNE
CZ-4C R/B 3.6 05:17:50 22° NW 05:20:25 29° N 05:26:23 10° NE
Cosmos 2173 Rocket 3.9 05:17:05 10° SSW 05:23:21 82° WNW 05:29:34 10° N
ATLAS 2AS CENTAUR R/B 2.9 05:19:26 21° NW 05:24:43 64° SW 05:31:44 10° SSE
Cosmos 1605 Rocket 4.4 05:21:55 20° WSW 05:25:29 36° WNW 05:31:05 10° N
Cosmos 1898 Rocket 3.5 05:21:35 15° SW 05:25:50 56° WNW 05:31:05 10° NNE
Helios 1A Rocket 3.9 05:21:58 10° NNE 05:25:59 48° E 05:29:56 10° S
Cosmos 2322 4.3 05:25:32 10° NNW 05:31:09 56° NE 05:36:43 10° SE
Meteor 1-31 Rocket 3.3 05:30:37 10° N 05:34:08 35° WNW 05:34:49 32° W
STARLINK-80 3.6 05:32:24 26° SW 05:34:27 69° SSE 05:38:17 10° ENE
Cosmos 1937 Rocket 3.4 05:29:55 10° SW 05:35:01 62° WNW 05:40:08 10° NNE
FENGYUN 3A 4.0 05:29:37 10° NNE 05:35:04 70° ESE 05:40:27 10° S
Cosmos 1606 3.1 05:32:29 10° N 05:36:16 62° ENE 05:40:02 10° SSE
CZ-4B R/B 3.8 05:31:56 10° NNE 05:37:17 61° ESE 05:42:41 10° S
SL-4 R/B 2.8 05:35:21 28° W 05:37:39 51° SSW 05:42:19 10° SE
Cosmos 2333 Rocket 3.3 05:32:11 10° NNW 05:37:42 43° NE 05:43:10 10° ESE
Cosmos 1892 2.9 05:34:40 10° SSW 05:38:19 46° WNW 05:41:59 10° N
METEOR-M 4.3 05:33:10 10° NNE 05:38:34 77° ESE 05:43:54 10° S
Cosmos 1484 Rocket 2.8 05:36:23 10° N 05:40:20 58° WNW 05:44:17 10° SSW
BREEZE-M DEB (TANK) 3.9 05:40:40 19° SW 05:41:37 23° SSW 05:43:51 10° SE
CZ-4B R/B 3.4 05:39:10 10° N 05:42:22 30° WNW 05:42:46 29° W
Cosmos 2058 3.8 05:41:50 27° W 05:42:26 28° WNW 05:46:05 10° N
Cosmos 2228 Rocket 3.4 05:39:32 10° N 05:44:08 71° ENE 05:48:43 10° SSE
Okean O Rocket 1.8 05:40:49 10° NNE 05:45:12 75° ESE 05:49:32 10° S
Cosmos 2219 Rocket 3.2 05:40:01 10° NNW 05:45:27 45° NE 05:50:53 10° ESE
USA 116 3.5 05:43:22 10° S 05:46:33 48° W 05:49:52 11° NNW
Cosmos 2150 Rocket 4.2 05:41:39 10° SSW 05:47:06 79° ESE 05:52:32 10° NNE
USA 234 3.5 05:41:32 10° E 05:47:58 62° NNE 05:53:09 17° WNW
STARLINK-52 3.3 05:46:37 29° WNW 05:48:15 65° N 05:51:46 10° E
Cosmos 2346 Rocket 4.4 05:42:20 10° NNW 05:48:25 73° W 05:54:26 10° S
IDEFIX/ARIANE 42P 4.1 05:46:18 10° NNW 05:49:05 16° NW 05:49:05 16° NW
STARLINK-60 3.2 05:48:57 28° WNW 05:50:31 63° N 05:53:52 10° E
Cosmos 1400 Rocket 3.1 05:46:33 10° N 05:50:40 71° ENE 05:54:41 10° SSE
Meteor 1-26 Rocket 4.4 05:45:54 10° N 05:51:42 79° ENE 05:57:18 10° SSE
NOAA 6 4.1 05:48:17 10° NNE 05:53:28 81° ESE 05:58:35 10° SSW
Gbstr 26 Del rocket 2.6 05:51:35 19° WSW 05:54:12 81° SSE 05:57:59 10° E
PAYLOAD B 4.1 05:48:44 10° NNE 05:54:16 80° WNW 05:59:46 10° SSW
Cosmos 1825 2.0 05:54:00 10° SSW 05:57:45 72° W 06:01:33 10° N
BREEZE-M DEB (TANK) 4.5 05:50:41 16° WNW 05:59:08 36° SW 06:03:05 10° SSE
STARLINK-48 3.5 05:57:18 13° WSW 06:00:41 78° SSE 06:04:36 10° ENE
STARLINK-43 3.3 05:59:05 18° W 06:01:44 78° NNW 06:05:29 10° ENE
STARLINK-29 3.3 05:59:42 21° WNW 06:01:52 64° N 06:05:20 10° E
ADEOS Rocket 4.0 05:54:20 10° SE 06:01:56 63° ENE 06:09:07 10° N
SJ-12 4.1 05:58:27 10° N 06:02:28 48° WNW 06:06:27 10° SW
Cosmos 1437 2.5 06:00:03 10° SSW 06:03:06 88° WNW 06:06:11 10° NNE
Abrixas rocket 4.5 06:01:12 10° SSW 06:03:30 20° SSE 06:05:50 10° ESE
Cosmos 1151 Rocket 3.6 06:00:44 10° NNW 06:04:45 35° W 06:08:42 10° SSW
Cosmos 1328 Rocket 4.3 06:02:44 10° NNW 06:06:34 31° W 06:10:22 10° SSW
CZ-2C R/B 4.5 06:02:16 10° SE 06:06:41 55° ENE 06:11:13 10° N
Cosmos 1459 Rocket 4.3 06:01:08 10° SW 06:07:01 44° WNW 06:13:02 10° N
H-2A R/B 4.2 06:03:34 10° NNE 06:07:07 41° E 06:10:37 10° S
Cosmos 1515 Rocket 3.8 06:03:47 10° NNW 06:07:57 46° W 06:12:06 10° SSW
CZ-4B DEB 4.2 06:03:29 10° N 06:08:51 57° WNW 06:14:11 10° SW
Cosmos 2082 Rocket 3.4 06:07:28 14° W 06:10:49 23° NW 06:15:20 10° NNE
SL-16 R/B 4.2 06:06:49 10° NNW 06:10:54 20° NNE 06:14:59 10° ENE
Cosmos 1725 Rocket 4.0 06:06:35 10° SSW 06:12:48 66° WNW 06:19:08 10° N
FALCON 9 DEB 3.2 06:11:38 16° WNW 06:14:14 65° N 06:17:40 10° E
Cosmos 2016 Rocket 4.1 06:09:10 10° SSW 06:15:16 53° WNW 06:21:30 10° N
Cosmos 1743 Rocket 3.4 06:11:29 10° SSW 06:15:48 73° WNW 06:20:09 10° N
Cosmos 2237 4.5 06:12:21 10° NW 06:17:53 51° WSW 06:23:22 10° S
Starlink (trailer) 4.5 06:14:02 10° SW 06:18:03 51° SSE 06:22:05 10° ENE
Cosmos 372 Rocket 3.9 06:13:41 10° SW 06:18:48 64° WNW 06:23:55 10° NNE
STARLINK-38 4.5 06:15:32 10° SW 06:19:33 52° SSE 06:23:35 10° ENE
STARLINK-26 4.2 06:16:18 10° SW 06:20:19 56° SSE 06:24:21 10° ENE
SL-27 R/B 4.3 06:20:13 12° NW 06:20:23 12° NW 06:21:48 10° NNW
STARLINK-65 4.4 06:17:13 10° SW 06:21:14 53° SSE 06:25:17 10° ENE
COSMOS 2487 2.6 06:19:01 10° SW 06:22:22 48° WNW 06:25:46 10° NNE
SAR-Lupe-2 4.0 06:19:25 10° SSE 06:22:57 63° ENE 06:26:32 10° N
STARLINK-61 3.8 06:20:14 10° WSW 06:24:15 70° SSE 06:28:16 10° ENE
RESURS DK-1 3.6 06:21:04 10° NNW 06:24:58 38° NE 06:28:51 10° ESE
Cosmos 1833 Rocket 4.3 06:22:47 11° WNW 06:25:57 16° NNW 06:29:27 10° N
STARLINK-69 4.3 06:22:07 10° SW 06:26:11 57° SSE 06:30:15 10° ENE
Lacrosse 5 2.4 06:21:53 11° W 06:26:34 46° N 06:31:28 10° ENE
CZ-2C R/B 3.9 06:24:43 10° NNW 06:27:33 15° NW 06:30:20 10° W
COSMOS 2455 4.2 06:23:42 10° WNW 06:27:41 19° WSW 06:31:47 10° SSW
STARLINK-66 4.3 06:23:49 10° SW 06:27:53 57° SSE 06:31:58 10° ENE
Cosmos 2298 Rocket 4.2 06:22:57 10° SW 06:28:06 50° WNW 06:33:18 10° NNE
Tsikada Rocket 4.4 06:23:03 10° NNW 06:29:06 45° W 06:35:04 10° SSW
STARLINK-41 4.3 06:25:23 10° SW 06:29:28 58° SSE 06:33:33 10° ENE
COSMOS 2428 2.8 06:23:49 10° NNW 06:29:35 83° ENE 06:35:19 10° SSE
STARLINK-64 4.2 06:27:04 10° SW 06:31:08 59° SSE 06:35:14 10° ENE
STARLINK-70 4.2 06:28:42 10° SW 06:32:47 60° SSE 06:36:53 10° ENE
Cosmos 1408 Rocket 4.4 06:29:46 10° SW 06:33:31 28° WNW 06:37:19 10° N
ATLAS CENTAUR R/B 1.7 06:28:44 10° SW 06:33:38 70° NW 06:38:21 10° NE
Cosmos 1238 Rocket 4.0 06:27:51 10° SSW 06:34:22 69° WNW 06:40:14 10° N
STARLINK-68 4.1 06:30:27 10° SW 06:34:32 63° SSE 06:38:40 10° ENE
Cosmos 1933 4.3 06:32:32 10° NNW 06:35:57 27° W 06:39:19 10° SSW
STARLINK-58 4.1 06:31:51 10° SW 06:35:57 63° SSE 06:40:03 10° ENE
Cosmos 1833 4.2 06:30:34 10° SSW 06:36:12 87° WNW 06:41:52 10° NNE
STARLINK-62 4.1 06:33:44 10° WSW 06:37:50 65° SSE 06:41:58 10° ENE
Cosmos 2360 Rocket 2.9 06:32:43 10° NW 06:37:51 35° WSW 06:42:57 10° S
SL-16 R/B 3.7 06:35:06 10° WNW 06:38:33 17° W 06:42:00 10° SW
STARLINK-63 4.1 06:35:20 10° WSW 06:39:26 65° SSE 06:43:33 10° ENE
Cosmos 1500 Rocket 3.8 06:35:28 10° SSW 06:39:47 48° WNW 06:44:07 10° N
Cosmos 2237 Rocket 3.1 06:35:03 10° NNW 06:40:34 48° NE 06:46:02 10° SE
STARLINK 4.1 06:36:49 10° SW 06:40:54 63° SSE 06:45:00 10° ENE
ALOS 3.0 06:37:23 10° N 06:41:31 31° WNW 06:45:36 10° SW
STARLINK-46 3.5 06:39:28 10° WNW 06:42:20 43° SSW 06:45:11 10° SE
STARLINK-72 4.1 06:38:34 10° WSW 06:42:41 66° SSE 06:46:48 10° ENE
STARLINK-59 4.0 06:41:57 10° WSW 06:46:05 70° SSE 06:50:13 10° ENE
